Location: Presov
(49.0000°N, 21.2500°E)
Time: 08:19:09
(UTC+02:00)

Envisat - Visible Passes

Search period start: 15 April 2024 00:00
Search period end: 25 April 2024 00:00
Orbit: 762 x 764 km, 98.3° (Epoch: 14 April)

Date Brightness Start Highest point End Pass type
(mag) Time Alt. Az. Time Alt. Az. Time Alt. Az.
15 Apr 5.6 02:29:37 10° ENE 02:31:42 12° E 02:33:44 10° ESE visible
15 Apr 3.0 04:06:21 10° NNE 04:11:28 83° ESE 04:16:32 10° SSW visible
16 Apr 4.1 03:29:14 10° NNE 03:34:00 40° E 03:38:46 10° SSE visible
17 Apr 5.2 02:52:39 10° NE 02:56:22 20° E 03:00:04 10° SE visible
17 Apr 3.1 04:30:45 10° N 04:35:46 62° WNW 04:40:46 10° SSW visible
18 Apr 3.3 03:53:24 10° NNE 03:58:27 66° ESE 04:03:30 10° S visible
19 Apr 4.5 03:16:24 10° NNE 03:20:56 32° E 03:25:27 10° SSE visible
19 Apr 3.6 04:55:16 10° N 04:59:59 40° WNW 05:04:41 10° SW visible
20 Apr 5.5 02:40:10 10° NE 02:43:13 16° E 02:46:14 10° SE visible
20 Apr 3.0 04:17:42 10° NNE 04:22:48 79° WNW 04:27:52 10° SSW visible
21 Apr 3.7 03:40:28 10° NNE 03:45:25 51° E 03:50:21 10° S visible
22 Apr 4.9 03:03:39 10° NE 03:07:50 25° E 03:11:59 10° SSE visible
22 Apr 3.3 04:42:10 10° N 04:47:04 50° WNW 04:51:57 10° SW visible
23 Apr 5.6 02:28:05 10° ENE 02:30:02 12° E 02:31:59 10° ESE visible
23 Apr 3.1 04:04:42 10° NNE 04:09:48 82° ESE 04:14:54 10° SSW visible
24 Apr 4.2 03:27:35 10° NNE 03:32:21 40° E 03:37:06 10° SSE visible
